CZ-6A DEB, 54458

Orbit data source: Space-Track

CZ-6A DEB, 54458 is space debris in SSO originally from a launch on Fri, 11 Nov 2022 UTC launched from the Taiyaun Space Center, China (TSC). Debris objects in space refer to the collection of defunct objects orbiting the Earth. Examples of debris include non-operational satellites, rocket bodies, and fragments generated from explosions, collisions, or faulty payload assembly.

Loading next visibility...
Identifier
54458, 2022-151GJ
Orbit
SSO
Country
Flag of CNCN / PRC
Related business
Manufacturer
SAST
Mission
Spacecraft
Bus & Motor
Unknown
Mass
Unknown
Launch date (UTC)
2022-11-11 (4 years ago)
Launch vehicle
Unknown
Launch site
Taiyaun Space Center, China (TSC)
Object type
Payload
Rocket body
Debris
Shape & HBR
Unknown shape, 0.1 m
Radar Cross Section
Medium (>0.1 m² and <1 m²)

Expand to show TLE details & history
Last TLE update: 2 days ago

TLE from 2 days ago
0 CZ-6A DEB
1 54458U 22151GJ  26171.13575957  .00002551  00000-0  88027-3 0  9997
2 54458  99.0273 242.4770 0145096 167.8215 192.6536 14.31020770187091
Epoch: 2026-06-20T03:15Z
TLE epoch observation values (Epoch: 2026-06-20T03:15:29.626Z)
Latitude
-0.00001°
Longitude
-74.75116°
Altitude
892.789 km
Speed
7.353 km/s
True Right ascension
16h 09m 54s
True Declination
0° 00' 00"
Sunlit
Object was in full shadow at epoch
Visualization orbit readout
Latitude
Unknown
Longitude
Unknown
Altitude
Unknown
Speed
Unknown
Apparent Right ascension
Unknown
Apparent Declination
Unknown
Sunlit
N/A
Visualization observer readout
Local Sidereal Time
23:19:43
Azimuth
Unknown
Elevation
Unknown
Doppler factor
Unknown
Orbital elements
Apogee altitude
889.421 km
Perigee altitude
681.538 km
Semi-major axis
7,163.616 km
Eccentricity
0.01451
Inclination
99.0273°
RAAN
242.477°
Arg. of periapsis
167.8215°
True anomaly
192.29572°
Mean anomaly
192.6536°
Eccentric anomaly
192.47403°
Mean motion
3.57968 °/min
Orbital period
100.57 mins
BSTAR
0.00088027
Loading maneuver chart data...
Computing Atmospheric mass density...
Loading historical data...
Loading historical data...
Loading historical data...
Loading historical data...
Loading historical data...
Loading historical data...
Loading historical data...

Documentation

Showing up to 5 results
|